#timestamp,LO_Frequency,Hit,StdDev 
1677916815.5,286047000.3,N
1677916835.3,286047002.0,N
1677916855.2,286047000.6,N
1677916875.9,286047000.7,N
1677916895.7,286047000.7,N
1677916915.6,286047002.8,N
1677916935.4,286047000.4,N
1677916955.3,286046999.9,N
1677916975.1,286047000.9,N
1677916995.8,286047000.6,N
1677917015.7,286046998.7,N
1677917035.5,286047002.6,N
1677917055.4,286046999.9,N
1677917075.2,286047001.1,N
1677917095.0,286047001.1,N
1677917095.9,286047001.1,N
1677917115.8,286047000.2,N
1677917135.6,286047002.2,N
1677917155.4,286047002.4,N
1677917175.3,286047000.1,N
1677917195.1,286047001.9,N
1677917215.9,286047001.1,N
1677917235.7,286047001.0,N
1677917255.5,286046998.1,N
1677917275.4,286046998.3,N
1677917295.2,286046998.2,N
1677917315.0,286047000.2,N
1677917315.9,286047000.2,N
1677917335.8,286047002.8,N
1677917355.6,286047000.3,N
1677917375.5,286047000.3,N
1677917395.3,286047002.3,N
1677917415.1,286047002.8,N
1677917435.9,286047000.1,N
1677917455.7,286047000.1,N
1677917475.5,286047001.1,N
1677917495.4,286046998.1,N
1677917515.2,286047000.6,N
1677917535.1,286047000.3,N
1677917536.0,286047000.3,N
1677917555.8,286047000.1,N
1677917575.6,286047002.6,N
1677917595.5,286047000.9,N
1677917615.3,286047000.9,N
1677917635.1,286047000.7,N
1677917655.9,286046999.8,N
1677917675.7,286047004.4,Y
1677917695.6,286046999.7,P
1677917715.4,286047000.3,N
1677917735.2,286047000.5,N
1677917755.1,286046998.6,Y
1677917756.0,286046998.6,P
1677917775.8,286046998.9,N
1677917795.7,286046998.6,N
1677917815.5,286046998.7,N
1677917835.3,286046999.5,N
1677917855.2,286046999.3,N
1677917875.9,286046998.4,N
1677917895.7,286046998.7,N
1677917915.6,286046999.8,N
1677917935.4,286047001.7,N
1677917955.3,286047002.3,N
1677917975.1,286047002.7,N
1677917976.0,286047002.7,N
1677917995.8,286047002.3,N
1677918015.7,286047001.9,N
1677918035.5,286047002.0,N
1677918055.3,286047000.5,N
1677918075.2,286047000.7,N
1677918095.0,286047001.1,N
1677918095.9,286047001.1,N
1677918115.8,286046998.5,N
1677918135.6,286046999.2,N
1677918155.5,286046998.7,N
1677918175.3,286046998.8,N
1677918195.1,286046999.4,N
1677918215.9,286046997.5,N
1677918235.7,286046997.7,N
1677918255.5,286046997.1,N
1677918275.4,286046997.9,N
1677918295.2,286046998.0,N
1677918315.1,286046995.7,N
1677918316.0,286046995.7,N
1677918335.8,286046993.8,Y
1677918355.6,286046996.0,P
1677918375.5,286046994.3,P
1677918395.3,286046994.1,N
1677918415.1,286046993.5,N
1677918435.9,286046996.4,N
1677918455.7,286046996.1,N
1677918475.6,286046996.4,N
1677918495.4,286046993.5,Y
1677918515.2,286046998.6,P
1677918535.1,286047001.0,N
1677918536.0,286047001.0,N
1677918555.8,286046999.9,N
1677918575.7,286046999.9,N
1677918595.5,286047002.3,N
1677918615.3,286047000.3,N
1677918635.2,286046998.4,N
1677918655.0,286047001.0,N
1677918655.9,286047001.0,N
1677918675.7,286047000.5,N
1677918695.6,286047000.2,N
1677918715.4,286047000.3,N
1677918735.3,286047000.6,N
1677918755.1,286047001.1,N
1677918756.0,286047001.1,N
1677918775.8,286047000.0,N
1677918795.7,286047001.1,N
1677918815.5,286047000.2,N
1677918835.3,286046999.9,N
1677918855.2,286046998.6,N
1677918875.0,286046998.5,N
1677918875.9,286046998.5,N
1677918895.8,286047001.0,N
1677918915.6,286046998.2,N
1677918935.4,286046999.3,N
1677918955.3,286046999.2,N
1677918975.1,286046996.6,N
1677918995.8,286046999.4,N
1677919015.7,286046998.8,N
1677919035.5,286046999.2,N
1677919055.4,286046997.4,N
1677919075.2,286046996.5,N
1677919095.0,286046997.0,N
1677919095.9,286046997.0,N
1677919115.8,286046999.4,N
1677919135.6,286046998.7,N
1677919155.5,286046999.4,N
1677919175.3,286046996.5,N
1677919195.1,286046997.1,N
1677919215.9,286046995.2,Y
1677919235.7,286046997.8,P
1677919255.5,286046995.3,P
1677919275.4,286046996.0,N
1677919295.2,286046996.4,N
1677919315.1,286046993.8,Y
1677919316.0,286046993.8,P
1677919335.8,286046996.7,N
1677919355.6,286046996.6,N
1677919375.5,286046998.4,N
1677919395.3,286046998.2,N
1677919415.1,286046999.6,N
1677919435.9,286046997.1,N
1677919455.7,286046997.3,N
1677919475.6,286046999.6,N
1677919495.4,286046999.0,N
1677919515.2,286046996.7,N
1677919535.1,286046999.5,N
1677919536.0,286046999.5,N
1677919555.8,286046997.6,N
1677919575.7,286046998.0,N
1677919595.5,286046997.4,N
1677919615.3,286046995.2,Y
1677919635.2,286046998.7,P
1677919655.0,286046999.5,N
1677919655.9,286046999.5,N
1677919675.7,286046998.8,N
1677919695.6,286046997.5,Y
1677919715.4,286046998.6,P
1677919735.3,286047001.1,P
1677919755.1,286046998.4,N
1677919756.0,286046998.4,N
1677919775.8,286046996.5,Y
1677919795.7,286046999.5,P
1677919815.5,286046998.9,P
1677919835.4,286046999.0,P
1677919855.2,286046998.9,Y
1677919875.0,286046999.0,P
1677919875.9,286046999.0,P
1677919895.8,286047001.2,P
1677919915.6,286046998.6,N
1677919935.5,286046998.6,N
1677919955.3,286046998.9,N
1677919975.1,286046998.3,N
1677919995.9,286046999.0,N
1677920015.7,286046998.7,N
1677920035.6,286046998.2,N
1677920055.4,286046999.6,N
1677920075.2,286046999.0,N
1677920095.1,286046999.5,N
1677920096.0,286046999.5,N
1677920115.8,286046999.6,N
1677920135.7,286046997.1,Y
1677920155.5,286046998.8,P
1677920175.3,286046999.5,P
1677920195.2,286046997.0,P
1677920215.0,286046999.3,N
1677920215.9,286046999.3,N
1677920235.7,286046997.3,Y
1677920255.6,286046998.9,P
1677920275.4,286046998.8,P
1677920295.3,286046998.1,P
1677920315.1,286046998.7,Y
1677920335.9,286047001.0,P
1677920355.7,286047000.5,N
1677920375.5,286047000.4,N
1677920395.4,286046998.2,N
